CZ-3C DEB, 40819

Orbit data source: Space-Track

CZ-3C DEB, 40819 is space debris originally from a launch on Sun, 31 Oct 2010 UTC launched from the Xichang Space Center, China (XSC). Debris objects in space refer to the collection of defunct objects orbiting the Earth. Examples of debris include non-operational satellites, rocket bodies, and fragments generated from explosions, collisions, or faulty payload assembly.

Loading next visibility...
CZ-3C DEB details
Identifier
40819, 2010-057AL
Orbit
Molniya
Last TLE update4 months ago
Origin
Flag of CNCASC (CN / PRC)
ManufacturerCALT
MissionSpacecraft
Bus & MotorUnknown
MassUnknown
Launch date (UTC)
2010-10-31 (14 years ago)
Launch vehicleUnknown
Launch site
Xichang Space Center, China (XSC)
Object type
Payload
Rocket body
Debris
Shape & HBRUnknown
Radar Cross SectionMedium (>0.1 m² and <1 m²)

Expand to show TLE details & history

TLE from 4 months ago
0 CZ-3C DEB
1 40819U 10057AL  24224.17666492  .00006760  00000-0  43620-1 0  9995
2 40819  20.1445 234.3826 7152331 269.4404  15.7991  2.31282508 81001
Epoch: 2024-08-11T04:14Z
Definitive object data (Epoch: 2024-08-11T04:14:23.849Z)
Latitude-0.00015°
Longitude-149.36482°
Altitude5,483.102 km
Speed7.121 km/s
True Right ascension15h 37m 26s
True Declination0° 00' 01"
Sunlit
Object was in daylight at TLE epoch
Visualization TLE readout
Latitude5.93869°
Longitude-33.84358°
Altitude32,565.35 km
Speed1.972 km/s
Apparent Right ascension22h 57m 32s
Apparent Declination0° 03' 47"
Sunlit
Object is in daylight
Visualization observer readout
Local Sidereal Time07:40:36
Azimuth298.902° NW
Elevation-30.1°
Doppler factor1
Orbital elements
Apogee altitude35,057.66 km
Perigee altitude501.128 km
Semi-major axis24,157.531 km
Eccentricity0.7152331
Inclination20.1445°
RAAN234.3826°
Arg. of periapsis269.4404°
True anomaly90.29664°
Mean anomaly15.7991°
Eccentric anomaly44.5454°
Mean motion0.57805 °/min
BSTAR0.04362
Orbital period622.79 mins
Loading maneuver chart data...
Loading historical data...
Loading historical data...
Loading historical data...
Loading historical data...
Loading historical data...
Loading historical data...
Loading historical data...

CZ-3C DEB Visibility forecast

Observer location: undefined°, undefined

Span
Click to sort rows by Start time (UTC) header in descending order
Start Az.
Max El. time (UTC)
Max El. Az.
Max El.
End time (UTC)
End Az.
19 mins2024-12-13 15:54:52.528Z155.078° SSE2024-12-13 15:59:52.528Z126.625° SE14.992°2024-12-13 16:13:52.528Z96.943° ESE
97 mins2024-12-13 21:53:52.528Z108.858° ESE2024-12-13 22:47:52.528Z115.145° SE11.132°2024-12-13 23:30:52.528Z119.436° SE
78 mins2024-12-14 03:38:52.528Z268.278° W2024-12-14 04:11:52.528Z265.172° W11.69°2024-12-14 04:56:52.528Z263.991° W
|